Location: Bukit Nyuki
(2.5885°N, 113.7476°E)
Time: 14:49:51
(UTC+00:00)

SL-4 R/B - Pass Details

Date: 18 May 2021
Orbit: 427 x 663 km, 51.6° (Epoch: 15 June)

Event Time Altitude Azimuth Distance (km) Brightness Sun altitude
Rises 12:13:43 0° 315° (NW) 2,867 6.8 -25.3°
Reaches altitude 10° 12:16:01 10° 310° (NW) 1,994 5.8 -25.8°
Maximum altitude 12:20:30 51° 235° (SW) 813 2.9 -26.8°
Enters shadow 12:20:33 51° 232° (SW) 813 2.9 -26.9°
